SDM6963 ULLI-LTFM

Flight info

Callsign SDM6963
Flight time N/A
Altitude 35000
Route SUGIN T873 NIRGI DCT OSKAD DCT UPERI DCT OMEZA DCT ABAGI B105 NIMTA/K0841F360 B105 NATIT/K0841F350 DCT MOLED DCT LIDUS/K0848F340 G242 ZG/K0857F330 DCT ITAKA/K0863F320 DCT OBBUD DCT AMKOL DCT GOTIK DCT MEMZA DCT VENFO DCT BINOL G487 ODIRA/N0465F320 DCT GAKSU UT310 NUGBA
Aircraft A320/M-SDE2E3FGHIRWXY/LB1

Departure

Time 2026-05-07 13:17
Airport Pulkovo Airport (ULLI)

Arrival

Time N/A
Airport İstanbul Airport (LTFM)
Time Latitude Longitude Altitude Speed Heading
2026-05-07 13:02 59.79715 30.26660 86 ft 0 kts 106°
2026-05-07 13:04 59.79718 30.26646 86 ft 2 kts 106°
2026-05-07 13:04 59.79722 30.26617 86 ft 2 kts 106°
2026-05-07 13:04 59.79726 30.26588 86 ft 2 kts 106°
2026-05-07 13:04 59.79730 30.26560 86 ft 2 kts 106°
2026-05-07 13:05 59.79734 30.26532 86 ft 2 kts 106°
2026-05-07 13:05 59.79739 30.26503 86 ft 2 kts 106°
2026-05-07 13:05 59.79740 30.26473 86 ft 2 kts 77°
2026-05-07 13:05 59.79734 30.26446 86 ft 2 kts 55°
2026-05-07 13:06 59.79724 30.26424 86 ft 2 kts 33°
2026-05-07 13:06 59.79710 30.26412 86 ft 2 kts 12°
2026-05-07 13:06 59.79696 30.26405 86 ft 2 kts 18°
2026-05-07 13:06 59.79692 30.26402 86 ft 0 kts 17°
2026-05-07 13:09 59.79693 30.26403 86 ft 0 kts 17°
2026-05-07 13:09 59.79705 30.26410 86 ft 3 kts 17°
2026-05-07 13:10 59.79737 30.26430 86 ft 5 kts 16°
2026-05-07 13:10 59.79780 30.26454 86 ft 6 kts 16°
2026-05-07 13:10 59.79830 30.26484 86 ft 8 kts 16°
2026-05-07 13:10 59.79890 30.26519 86 ft 9 kts 16°
2026-05-07 13:11 59.79956 30.26558 86 ft 10 kts 16°
2026-05-07 13:11 59.80028 30.26600 86 ft 11 kts 16°
2026-05-07 13:11 59.80107 30.26647 86 ft 12 kts 16°
2026-05-07 13:11 59.80190 30.26697 86 ft 12 kts 17°
2026-05-07 13:12 59.80263 30.26741 86 ft 8 kts 17°
2026-05-07 13:12 59.80325 30.26777 86 ft 9 kts 15°
2026-05-07 13:12 59.80385 30.26803 86 ft 8 kts 352°
2026-05-07 13:12 59.80421 30.26704 86 ft 10 kts 286°
2026-05-07 13:13 59.80442 30.26563 86 ft 11 kts 286°
2026-05-07 13:13 59.80466 30.26396 86 ft 13 kts 286°
2026-05-07 13:13 59.80495 30.26211 86 ft 14 kts 287°
2026-05-07 13:13 59.80524 30.26018 86 ft 14 kts 286°
2026-05-07 13:14 59.80553 30.25818 86 ft 15 kts 286°
2026-05-07 13:14 59.80584 30.25611 86 ft 15 kts 287°
2026-05-07 13:14 59.80616 30.25400 86 ft 16 kts 285°
2026-05-07 13:14 59.80648 30.25183 86 ft 16 kts 286°
2026-05-07 13:15 59.80680 30.24966 86 ft 15 kts 287°
2026-05-07 13:15 59.80712 30.24755 86 ft 16 kts 286°
2026-05-07 13:15 59.80754 30.24614 86 ft 10 kts 333°
2026-05-07 13:15 59.80831 30.24576 86 ft 12 kts 347°
2026-05-07 13:16 59.80914 30.24545 86 ft 9 kts 357°
2026-05-07 13:16 59.80963 30.24616 86 ft 10 kts 85°
2026-05-07 13:16 59.80944 30.24762 86 ft 12 kts 107°
2026-05-07 13:16 59.80892 30.25108 86 ft 54 kts 106°
2026-05-07 13:17 59.80725 30.26219 86 ft 114 kts 108°
2026-05-07 13:17 59.80448 30.28059 99 ft 161 kts 109°
2026-05-07 13:17 59.80118 30.30180 632 ft 161 kts 105°
2026-05-07 13:17 59.79818 30.32287 1172 ft 163 kts 103°
2026-05-07 13:18 59.79505 30.34461 1764 ft 166 kts 103°
2026-05-07 13:18 59.79166 30.36716 2230 ft 176 kts 103°
2026-05-07 13:18 59.78802 30.39125 2534 ft 191 kts 104°
2026-05-07 13:18 59.78410 30.41725 2836 ft 206 kts 104°
2026-05-07 13:19 59.77974 30.44621 3087 ft 227 kts 104°
2026-05-07 13:19 59.77822 30.45631 3215 ft 233 kts 104°